Manteo, NC

7:45 AM EDT on April 30, 2017 (GMT -0400)
Dare County Regional

Weather History for KMQI - February, 2014

Change the Weather History Date:

Monday, February 24, 2014

  Actual Average Record
Temperature  
Mean Temperature 43 °F -  
Max Temperature 50 °F 52 °F 75 °F (1975)
Min Temperature 36 °F 38 °F 25 °F (1978)
Degree Days  
Heating Degree Days 22    
Moisture  
Dew Point 37 °F    
Average Humidity 72    
Maximum Humidity 94    
Minimum Humidity 54    
Precipitation  
Precipitation 0.00 in - - ()
Sea Level Pressure  
Sea Level Pressure 30.00 in    
Wind  
Wind Speed 7 mph (ENE)    
Max Wind Speed 20 mph    
Max Gust Speed 26 mph    
Visibility 10 miles    
Events      
Averages and records for this station are not official NWS values.
T = Trace of Precipitation, MM = Missing Value Source: NWS Daily Summary

Daily Weather History Graph

Daily Weather History Graph

Search for Another Location

Airport or City:

Trip Planner

Search our weather history database for the weather conditions in past years. The results will help you decide how hot, cold, wet, or windy it might be!

Date:

Astronomy

Feb. 24, 2014 Rise Set
Actual Time 6:39 AM EST 5:53 PM EST
Civil Twilight 6:13 AM EST 6:18 PM EST
Nautical Twilight 5:43 AM EST 6:48 PM EST
Astronomical Twilight 5:14 AM EST 7:18 PM EST
Moon 2:29 AM EST (2/24) 12:57 PM EST (2/24)
Length of Visible Light 12h 05m
Length of Day
11h 13m
Waning Crescent, 28% of the Moon is Illuminated
Feb 24
Waning Crescent
Mar 1
New
Mar 8
First Quarter
Mar 16
Full
Mar 23
Last Quarter

Hourly Weather History & Observations

Time (EST) Temp. Windchill Dew Point Humidity Pressure Visibility Wind Dir Wind Speed Gust Speed Precip Events Conditions
12:15 AM 49.6 °F - 43.0 °F 78% 29.88 in 10.0 mi Calm Calm - N/A   Mostly Cloudy
12:35 AM 50.9 °F - 43.7 °F 76% 29.88 in 10.0 mi SW 3.5 mph - N/A   Overcast
12:55 AM 50.7 °F - 44.6 °F 80% 29.88 in 10.0 mi Calm Calm - N/A   Overcast
1:15 AM 50.0 °F - 45.5 °F 85% 29.87 in 10.0 mi Calm Calm - N/A   Mostly Cloudy
1:35 AM 49.5 °F - 45.5 °F 86% 29.87 in 10.0 mi Calm Calm - N/A   Scattered Clouds
1:55 AM 49.1 °F - 45.1 °F 86% 29.87 in 10.0 mi Calm Calm - N/A   Clear
2:15 AM 47.8 °F - 44.2 °F 87% 29.86 in 10.0 mi Calm Calm - N/A   Clear
2:35 AM 49.1 °F - 44.6 °F 84% 29.85 in 10.0 mi WSW 4.6 mph - N/A   Clear
2:55 AM 48.2 °F - 45.1 °F 89% 29.85 in 10.0 mi Calm Calm - N/A   Clear
3:15 AM 48.2 °F - 44.6 °F 87% 29.86 in 10.0 mi Calm Calm - N/A   Clear
3:35 AM 49.1 °F - 44.1 °F 83% 29.87 in 10.0 mi North 9.2 mph - N/A   Clear
3:55 AM 50.4 °F - 43.0 °F 76% 29.87 in 10.0 mi NW 3.5 mph - N/A   Clear
4:15 AM 48.6 °F - 41.5 °F 77% 29.89 in 10.0 mi North 13.8 mph 19.6 mph N/A   Clear
4:35 AM 46.0 °F 39.9 °F 36.9 °F 70% 29.90 in 10.0 mi NNE 13.8 mph 20.7 mph N/A   Clear
4:55 AM 45.5 °F 39.2 °F 37.4 °F 73% 29.91 in 10.0 mi NNE 13.8 mph 21.9 mph N/A   Clear
5:15 AM 45.1 °F 38.1 °F 37.8 °F 75% 29.92 in 10.0 mi NNE 16.1 mph 21.9 mph N/A   Clear
5:35 AM 45.0 °F 37.6 °F 38.1 °F 77% 29.92 in 10.0 mi NNE 17.3 mph 26.5 mph N/A   Clear
5:55 AM 45.0 °F 37.6 °F 38.3 °F 77% 29.93 in 10.0 mi NE 17.3 mph 25.3 mph N/A   Clear
6:15 AM 45.0 °F 37.9 °F 38.3 °F 77% 29.94 in 10.0 mi NE 16.1 mph 23.0 mph N/A   Clear
6:35 AM 45.0 °F 37.6 °F 38.3 °F 77% 29.95 in 10.0 mi NE 17.3 mph 25.3 mph N/A   Clear
6:55 AM 45.0 °F 37.6 °F 38.3 °F 77% 29.95 in 10.0 mi NE 17.3 mph 23.0 mph N/A   Clear
7:15 AM 45.1 °F 39.1 °F 38.7 °F 78% 29.96 in 10.0 mi NE 12.7 mph - N/A   Clear
7:35 AM 45.5 °F 39.2 °F 39.2 °F 79% 29.98 in 10.0 mi NE 13.8 mph 20.7 mph N/A   Clear
7:55 AM 46.0 °F 39.3 °F 38.7 °F 75% 29.99 in 10.0 mi NE 16.1 mph 23.0 mph N/A   Clear
8:15 AM 46.4 °F 41.1 °F 38.5 °F 74% 30.00 in 10.0 mi NE 11.5 mph 19.6 mph N/A   Clear
8:35 AM 46.6 °F - 37.9 °F 72% 30.01 in 10.0 mi NE 16.1 mph 21.9 mph N/A   Clear
8:55 AM 46.6 °F - 37.4 °F 70% 30.02 in 10.0 mi NE 13.8 mph 21.9 mph N/A   Clear
9:15 AM 47.3 °F - 36.5 °F 66% 30.02 in 10.0 mi NE 17.3 mph 24.2 mph N/A   Clear
9:35 AM 47.5 °F - 35.6 °F 63% 30.03 in 10.0 mi NE 19.6 mph - N/A   Clear
9:55 AM 47.8 °F - 35.4 °F 62% 30.02 in 10.0 mi NNE 15.0 mph - N/A   Clear
10:15 AM 47.8 °F - 36.1 °F 64% 30.03 in 10.0 mi NE 16.1 mph 19.6 mph N/A   Clear
10:35 AM 47.7 °F - 33.4 °F 58% 30.03 in 10.0 mi NNE 17.3 mph 23.0 mph N/A   Clear
10:55 AM 48.4 °F - 32.5 °F 54% 30.03 in 10.0 mi NE 16.1 mph 21.9 mph N/A   Clear
11:15 AM 48.2 °F - 32.9 °F 55% 30.05 in 10.0 mi NNE 15.0 mph 20.7 mph N/A   Clear
11:35 AM 48.4 °F - 34.0 °F 58% 30.05 in 10.0 mi NNE 15.0 mph 19.6 mph N/A   Clear
11:55 AM 49.1 °F - 33.3 °F 54% 30.04 in 10.0 mi NNE 12.7 mph 18.4 mph N/A   Clear
12:15 PM 47.7 °F - 32.5 °F 56% 30.03 in 10.0 mi NE 10.4 mph - N/A   Clear
12:35 PM 48.2 °F - 32.9 °F 55% 30.04 in 10.0 mi NNE 9.2 mph - N/A   Clear
12:55 PM 47.8 °F - 33.4 °F 57% 30.03 in 10.0 mi ENE 9.2 mph - N/A   Clear
1:15 PM 47.8 °F - 33.4 °F 57% 30.02 in 10.0 mi East 8.1 mph - N/A   Clear
1:35 PM 48.6 °F - 33.6 °F 56% 30.00 in 10.0 mi ENE 5.8 mph - N/A   Clear
1:55 PM 48.9 °F - 33.4 °F 55% 29.98 in 10.0 mi East 8.1 mph - N/A   Clear
2:15 PM 49.1 °F - 34.5 °F 57% 29.98 in 10.0 mi East 8.1 mph - N/A   Clear
2:35 PM 48.9 °F - 34.0 °F 56% 29.98 in 10.0 mi ESE 6.9 mph - N/A   Clear
2:55 PM 48.6 °F - 34.2 °F 58% 29.98 in 10.0 mi ESE 6.9 mph - N/A   Clear
3:20 PM 48.6 °F - 33.4 °F 56% 30.00 in 10.0 mi ESE 6.9 mph - N/A   Clear
3:35 PM 47.3 °F - 32.9 °F 57% 30.00 in 10.0 mi East 9.2 mph - N/A   Clear
3:55 PM 47.1 °F - 33.3 °F 59% 30.00 in 10.0 mi ESE 8.1 mph - N/A   Clear
4:15 PM 46.6 °F - 33.8 °F 61% 30.00 in 10.0 mi ESE 8.1 mph - N/A   Clear
4:35 PM 46.4 °F 42.9 °F 34.2 °F 62% 30.01 in 10.0 mi ESE 6.9 mph - N/A   Clear
4:55 PM 46.0 °F 43.1 °F 34.5 °F 64% 30.01 in 10.0 mi SE 5.8 mph - N/A   Clear
5:15 PM 45.9 °F 42.3 °F 34.3 °F 64% 30.02 in 10.0 mi SE 6.9 mph - N/A   Clear
5:35 PM 45.1 °F 41.4 °F 34.7 °F 67% 30.03 in 10.0 mi SE 6.9 mph - N/A   Clear
5:55 PM 43.9 °F 42.3 °F 35.2 °F 72% 30.05 in 10.0 mi SE 3.5 mph - N/A   Clear
6:15 PM 43.9 °F 42.3 °F 35.4 °F 72% 30.06 in 10.0 mi ESE 3.5 mph - N/A   Clear
6:35 PM 42.3 °F - 35.6 °F 77% 30.07 in 10.0 mi Calm Calm - N/A   Clear
6:55 PM 39.6 °F 36.3 °F 35.1 °F 84% 30.08 in 10.0 mi North 4.6 mph - N/A   Clear
7:15 PM 40.6 °F - 35.8 °F 83% 30.08 in 10.0 mi Calm Calm - N/A   Clear
7:35 PM 38.7 °F - 34.9 °F 86% 30.09 in 10.0 mi Calm Calm - N/A   Clear
8:00 PM 39.9 °F - 35.6 °F 85% 30.10 in 10.0 mi Calm Calm - N/A   Clear
8:15 PM 39.9 °F - 36.1 °F 86% 30.11 in 10.0 mi Calm Calm - N/A   Clear
8:35 PM 37.6 °F - 34.7 °F 89% 30.11 in 10.0 mi Calm Calm - N/A   Clear
8:55 PM 38.7 °F - 35.6 °F 89% 30.12 in 10.0 mi Calm Calm - N/A   Clear
9:15 PM 36.7 °F 34.1 °F 35.1 °F 94% 30.12 in 10.0 mi East 3.5 mph - N/A   Clear
9:35 PM 39.6 °F 35.4 °F 35.4 °F 85% 30.13 in 10.0 mi ENE 5.8 mph - N/A   Clear
9:55 PM 40.1 °F 36.1 °F 35.6 °F 84% 30.14 in 10.0 mi ENE 5.8 mph - N/A   Clear
10:15 PM 40.6 °F 35.4 °F 36.3 °F 85% 30.14 in 10.0 mi East 8.1 mph - N/A   Clear
10:35 PM 41.5 °F 37.1 °F 36.5 °F 82% 30.15 in 10.0 mi East 6.9 mph - N/A   Clear
10:55 PM 41.9 °F 36.9 °F 35.6 °F 78% 30.14 in 10.0 mi ENE 8.1 mph - N/A   Clear
11:15 PM 41.9 °F 37.5 °F 35.1 °F 77% 30.14 in 10.0 mi East 6.9 mph - N/A   Clear
11:35 PM 41.7 °F 37.3 °F 34.9 °F 77% 30.15 in 10.0 mi ENE 6.9 mph - N/A   Clear
11:55 PM 41.2 °F 36.0 °F 34.7 °F 78% 30.14 in 10.0 mi ENE 8.1 mph - N/A   Clear